This demonstration page uses our WeatherBlox Daily Observations layout. Learn more.

Left ArrowRight Arrow

39.92423, -83.80882

Hourly Observations for July 14, 2020

Temp ( °F °C ) Dew Point ( °F °C ) Humidity (%) Winds ( mph kmh ) Pressure ( in mb ) Visibility ( mi km ) Precip ( " mm )
12:56 am 00:56 Clear 65 18.3 64 17.8 97 97 ENE 3 6 30.00 1016 10 16 N/A
1:56 am 01:56 Clear 64 17.8 64 17.8 100 100 N N/A 30.01 1016 10 16 N/A
2:56 am 02:56 Clear 64 17.8 64 17.8 100 100 ENE 3 6 30.01 1016 10 16 N/A
3:56 am 03:56 Partly Cloudy 62 16.7 62 16.7 100 100 E 3 6 30.00 1016 10 16 N/A
4:56 am 04:56 Partly Cloudy 61 16.1 61 16.1 100 100 E 5 7 30.01 1016 10 16 N/A
5:56 am 05:56 Clear 62 16.7 61 16.1 96 96 NNE 3 6 30.04 1017 10 16 N/A
6:56 am 06:56 Mostly Cloudy 61 16.1 61 16.1 100 100 NE 6 9 30.06 1018 10 16 N/A
7:56 am 07:56 Sunny 66 18.9 64 17.8 93 93 NE 5 7 30.08 1019 10 16 N/A
8:56 am 08:56 Hazy 72 22.2 63 17.2 73 73 E 9 15 30.08 1019 1 1 N/A
9:08 am 09:08 Hazy 72 22 63 17 73 73 ESE 8 13 30.05 1018 2 2 0.02 0.51
9:18 am 09:18 Sunny 72 22 64 18 78 78 ESE 8 13 30.06 1018 10 16 0.02 0.51
9:56 am 09:56 Sunny 75 23.9 64 17.8 69 69 ESE 9 15 30.09 1019 10 16 0.02 0.51
10:56 am 10:56 Sunny 77 25 63 17.2 62 62 SE 9 15 30.07 1018 10 16 N/A
11:56 am 11:56 Sunny 79 26.1 62 16.7 56 56 SSE 9 15 30.07 1018 10 16 N/A
12:56 pm 12:56 Mostly Sunny 80 26.7 63 17.2 56 56 VRB 5 7 30.07 1018 10 16 N/A
1:56 pm 13:56 Mostly Cloudy 82 27.8 61 16.1 49 49 VRB 3 6 30.09 1019 10 16 N/A
2:56 pm 14:56 Mostly Sunny 82 27.8 61 16.1 49 49 NNE 6 9 30.09 1019 10 16 N/A
3:56 pm 15:56 Sunny 83 28.3 60 15.6 46 46 ESE 7 11 30.06 1018 10 16 N/A
4:56 pm 16:56 Sunny 83 28.3 59 15 44 44 E 6 9 30.06 1018 10 16 N/A
5:56 pm 17:56 Sunny 83 28.3 61 16.1 48 48 ESE 6 9 30.05 1018 10 16 N/A
6:56 pm 18:56 Sunny 82 27.8 62 16.7 51 51 N N/A 30.06 1018 10 16 N/A
7:56 pm 19:56 Sunny 79 26.1 65 18.3 62 62 E 6 9 30.06 1018 10 16 N/A
8:56 pm 20:56 Sunny 74 23.3 66 18.9 76 76 ESE 5 7 30.06 1018 10 16 N/A
9:56 pm 21:56 Clear 71 21.7 65 18.3 81 81 ESE 5 7 30.05 1018 10 16 N/A
10:56 pm 22:56 Clear 68 20 65 18.3 90 90 E 5 7 30.07 1018 10 16 N/A
11:56 pm 23:56 Mostly Clear 69 20.6 63 17.2 81 81 ESE 7 11 30.07 1018 10 16 N/A

Powered by AerisWeather